Torna al catalogo

CZ-6A DEB

AttivoPO
NORAD 61113·DEBRIS·🇨🇳 China

Lanciato Aug 6, 2024 da Taiyuan Satellite Launch Center

Loading…

Prossimi Passaggi (prossime 24 ore)

TLE

AggiornatoSource: Space-Track

Epoca: Sep 14, 2026, 20:52 UTC

1 61113U 24140PF  26257.86960911  .00000259  00000-0  26272-3 0  9993
2 61113  88.2879 219.1206 0437679 194.0322 164.8340 13.38999047100835

Traccia CZ-6A DEB in tempo reale con AllMySat

Download on the App Store